Vorticity
7 6 6 6 6 6 7 6 8 8 8 8 9 10 9 4 1 2 2 4 5 6 7 6 7 5 2 2 2 3 3 5
2 6 4 6 6 6 7 8 9 10 10 11 8 5 2 2 2 5 6 6 6 6 5 5 3 2 1 1 2 3 3 4
6 6 8 5 5 5 7 8 8 9 11 7 2 1 1 2 4 5 6 6 6 5 4 3 2 1 1 2 3 4 4 4
5 10 8 4 4 4 6 7 7 6 6 5 3 3 3 4 6 8 7 7 6 6 4 2 1 -1 -2 -0 2 5 5 6
6 8 8 6 4 5 6 5 5 5 5 6 7 7 7 6 6 5 5 4 5 6 5 5 4 2 2 1 2 3 2 2
9 8 9 7 4 5 4 4 4 4 4 4 4 4 3 3 3 1 1 2 2 1 1 1 1 0 2 3 5 6 3 2
7 7 8 5 5 5 3 6 5 5 3 2 2 3 2 1 1 1 2 3 3 3 4 4 4 4 4 5 3 2 3 4
7 6 5 6 5 5 5 4 3 -0 1 1 2 4 4 4 5 5 3 4 7 9 9 8 8 7 6 7 9 14 15 15
8 7 5 4 4 3 3 2 2 2 3 4 3 2 5 8 9 9 8 7 7 8 8 9 12 13 11 7 6 7 7 7
10 8 5 5 2 1 1 1 0 0 2 2 4 6 6 6 8 10 9 8 7 7 6 6 4 2 3 5 9 11 10 7
8 6 6 6 3 2 3 2 1 3 1 2 6 6 6 7 5 5 5 3 4 6 5 5 3 5 13 16 15 12 13 13
8 6 6 4 4 3 2 5 1 2 2 6 6 5 6 4 3 4 4 5 6 6 8 10 12 12 7 5 8 4 8 15
7 6 6 7 5 4 2 -0 2 3 6 5 3 1 1 5 4 2 4 5 7 12 14 12 11 12 9 8 10 18 20 32
6 5 8 5 3 1 2 5 3 4 4 2 5 4 5 6 5 7 8 11 12 12 14 12 10 9 8 13 19 20 32 21
6 5 6 4 2 0 2 4 2 4 3 6 5 4 6 7 7 6 9 12 10 13 7 9 3 10 17 11 31 23 20 16
5 6 6 0 -0 2 4 1 4 2 7 7 4 7 7 7 8 10 13 11 11 8 10 1 15 16 19 28 16 22 15 13
9 7 -0 4 2 2 3 6 0 5 9 8 7 8 7 7 11 13 11 9 8 9 9 16 16 16 18 13 21 21 12 8
6 3 2 -1 9 7 8 -2 7 13 9 10 9 5 5 12 12 11 8 8 11 11 19 15 16 12 14 18 19 20 13 9
2 -3 4 9 13 9 -4 10 11 10 13 5 4 -0 14 13 11 7 8 12 15 20 15 13 12 14 13 16 21 17 11 14
5 4 9 6 8 2 9 13 13 12 1 3 0 15 11 12 8 10 13 18 17 19 12 11 10 11 10 23 27 17 14 17
Height
5839 5839 5840 5839 5839 5838 5837 5836 5836 5835 5834 5832 5831 5831 5830 5829 5828 5828 5826 5824 5823 5822 5822 5821 5821 5821 5821 5820 5820 5820 5819 5818
5836 5835 5834 5835 5834 5834 5833 5832 5832 5831 5830 5829 5828 5828 5827 5826 5825 5823 5822 5820 5818 5817 5816 5816 5816 5815 5815 5815 5813 5812 5813 5812
5831 5831 5831 5829 5828 5828 5828 5828 5827 5825 5825 5825 5825 5825 5824 5823 5821 5819 5817 5816 5814 5813 5812 5811 5810 5810 5809 5808 5807 5806 5805 5804
5827 5825 5824 5823 5822 5822 5822 5822 5822 5821 5821 5821 5820 5820 5818 5817 5815 5814 5813 5811 5810 5808 5807 5806 5805 5803 5802 5800 5799 5798 5796 5795
5822 5820 5818 5818 5817 5817 5816 5816 5816 5815 5815 5814 5813 5812 5811 5810 5808 5807 5806 5805 5804 5803 5801 5799 5797 5795 5793 5791 5789 5788 5787 5786
5815 5814 5813 5812 5811 5811 5810 5809 5808 5808 5808 5807 5806 5804 5803 5801 5800 5799 5797 5796 5794 5793 5791 5789 5787 5785 5783 5781 5779 5777 5775 5774
5808 5807 5806 5806 5805 5804 5803 5802 5802 5801 5800 5799 5797 5795 5794 5793 5791 5789 5787 5786 5784 5782 5779 5777 5774 5772 5769 5767 5765 5763 5762 5760
5801 5801 5800 5800 5799 5797 5797 5796 5795 5793 5792 5791 5789 5787 5786 5784 5782 5780 5778 5775 5773 5770 5767 5764 5761 5759 5756 5753 5750 5747 5745 5744
5794 5794 5793 5793 5792 5791 5790 5789 5788 5787 5785 5784 5782 5779 5776 5774 5772 5769 5766 5763 5760 5757 5754 5751 5748 5745 5741 5737 5733 5729 5725 5723
5786 5786 5786 5786 5785 5784 5783 5782 5782 5780 5778 5776 5772 5770 5767 5763 5760 5757 5754 5750 5747 5743 5740 5736 5733 5729 5725 5720 5716 5710 5707 5704
5778 5778 5778 5778 5777 5776 5776 5774 5773 5771 5768 5766 5763 5760 5757 5753 5749 5746 5741 5737 5733 5728 5723 5720 5717 5712 5707 5703 5696 5691 5686 5681
5769 5769 5770 5770 5769 5768 5767 5766 5764 5761 5759 5757 5754 5750 5746 5742 5738 5733 5728 5724 5719 5715 5709 5702 5698 5692 5684 5679 5673 5666 5660 5655
5760 5760 5761 5761 5760 5759 5758 5756 5754 5751 5749 5747 5744 5739 5735 5731 5726 5721 5715 5710 5705 5699 5692 5685 5678 5673 5667 5661 5651 5641 5633 5625
5751 5751 5752 5751 5750 5750 5749 5746 5744 5741 5740 5737 5732 5728 5723 5718 5712 5706 5701 5695 5688 5681 5674 5667 5660 5654 5648 5640 5633 5621 5614 5604
5742 5743 5743 5742 5741 5739 5739 5736 5733 5731 5728 5725 5720 5715 5710 5704 5699 5693 5687 5680 5673 5666 5659 5652 5645 5634 5626 5620 5615 5607 5600 5589
5733 5733 5733 5732 5731 5730 5728 5725 5722 5720 5717 5712 5707 5702 5697 5692 5686 5680 5674 5667 5660 5653 5645 5637 5629 5621 5612 5603 5597 5590 5585 5582
5723 5724 5724 5722 5720 5720 5717 5713 5711 5708 5704 5700 5696 5691 5686 5680 5674 5667 5661 5654 5647 5639 5631 5624 5617 5610 5601 5593 5585 5578 5573 5570
5714 5714 5712 5710 5709 5708 5705 5702 5700 5697 5693 5689 5684 5680 5675 5669 5662 5656 5650 5643 5635 5628 5621 5614 5607 5599 5592 5583 5575 5570 5564 5559
5703 5702 5701 5699 5699 5696 5694 5693 5690 5686 5682 5678 5674 5670 5664 5658 5652 5646 5639 5632 5625 5618 5612 5606 5599 5592 5584 5574 5567 5561 5556 5551
5691 5690 5689 5689 5687 5686 5684 5681 5678 5675 5672 5668 5664 5659 5653 5648 5642 5636 5629 5622 5616 5610 5605 5599 5592 5585 5576 5568 5561 5555 5550 5544